Location: Nasgenstadt
(48.2786°N, 9.7553°E)
Time: 14:11:29
(UTC+02:00)

ISS - Pass Details

Date: 08 January 2018
Orbit: 402 x 409 km, 51.6° (Epoch: 21 August)

Event Time Altitude Azimuth Distance (km) Brightness Sun altitude
Exits shadow 05:12:41 17° 66° (ENE) 1,165 -0.9 -28.7°
Drops below altitude 10° 05:13:36 10° 72° (ENE) 1,514 -0.1 -28.6°
Sets 05:15:46 0° 79° (ENE) 2,382 1.2 -28.2°
